Location: La Plaine
(44.5650°N, 5.9332°E)
Time: 03:50:06
(UTC+00:00)

Daily predictions for brighter satellites

Satellite Brightness Start Highest point End
(mag) Time Altitude Azimuth Time Altitude Azimuth Time Altitude Azimuth
COSMOS 2455 3.7 00:04:46 30° SE 00:06:15 34° ESE 00:11:35 10° NE
MetOp-A 3.9 00:06:33 43° W 00:06:33 43° W 00:10:03 10° NNW
Nadezhda 1 Rocket 4.5 00:04:29 32° SW 00:06:56 49° WNW 00:12:56 10° N
Cosmos 2082 Rocket 3.1 00:03:22 10° NW 00:08:16 32° WSW 00:09:02 31° WSW
Cosmos 962 Rocket 4.5 00:03:17 10° N 00:09:40 77° W 00:12:02 41° S
Cosmos 2278 Rocket 4.2 00:07:13 10° W 00:11:31 22° NW 00:15:51 10° N
Cosmos 1869 3.5 00:10:16 10° N 00:13:37 48° ENE 00:13:40 48° E
IDEFIX/ARIANE 42P 4.5 00:10:30 10° NE 00:14:14 19° E 00:16:31 15° ESE
NOSS 3-1 (A) 3.9 00:14:35 29° SE 00:15:04 29° ESE 00:19:31 10° NE
CZ-4C R/B 3.3 00:13:17 10° NNE 00:16:54 57° E 00:16:54 57° E
Cosmos 1356 Rocket 3.5 00:13:49 10° N 00:17:48 63° ENE 00:18:25 55° ESE
SL-8 R/B 3.7 00:15:45 28° WSW 00:18:15 77° NNW 00:23:02 10° ENE
Cosmos 1452 Rocket 4.0 00:15:09 10° NNW 00:20:06 42° WSW 00:20:55 39° SW
Cosmos 1992 Rocket 4.1 00:15:03 10° NNW 00:20:15 70° ENE 00:22:24 35° SE
USA 308 3.0 00:23:07 46° E 00:23:07 46° E 00:26:25 10° ENE
Meteor 2-15 Rocket 4.4 00:17:19 10° N 00:23:28 81° E 00:26:05 37° SSE
NOSS 3-1 (C) 2.8 00:22:32 50° SW 00:23:48 86° NW 00:29:16 10° NE
Cosmos 1908 Rocket 3.7 00:20:33 10° N 00:24:59 69° E 00:26:03 49° SE
CZ-3B R/B 4.2 00:28:33 29° SW 00:32:34 85° SE 01:02:30 10° NE
COSMOS 2406 3.7 00:30:35 10° NW 00:35:54 42° WSW 00:37:01 37° SW
Cosmos 2341 Rocket 4.1 00:29:51 10° NNW 00:36:01 64° W 00:38:22 38° SSW
SL-8 Rocket 4.2 00:33:42 10° NNW 00:39:42 57° W 00:41:58 37° SSW
SL-4 R/B 1.6 00:42:23 65° NE 00:42:23 65° NE 00:45:09 10° ENE
Cosmos 1782 Rocket 4.1 00:39:03 10° N 00:43:23 53° ENE 00:45:03 33° SE
Cosmos 2297 3.8 00:45:21 37° SW 00:47:41 74° WNW 00:53:27 10° NNE
Cosmos 2369 Rocket 2.5 00:50:46 32° SW 00:53:12 58° WNW 00:58:44 10° NNE
DELTA 2 DEB (DPAF) 3.5 00:49:57 10° N 00:53:28 68° WNW 00:53:47 63° WSW
Lacrosse 4 Rocket 1.8 00:49:54 10° NNW 00:54:05 61° ENE 00:56:29 23° SE
BREEZE-M DEB (TANK) 4.3 00:34:12 10° WNW 00:55:44 73° NNE 01:00:07 10° E
CZ-2C R/B 3.9 00:55:17 22° WSW 00:56:08 23° W 01:00:14 10° NW
USA 290 2.9 00:54:52 10° NNW 00:57:15 41° WNW 00:57:15 41° WNW
Cosmos 2228 Rocket 4.4 00:59:27 23° W 01:00:35 26° WNW 01:04:19 10° NNW
ADEOS Rocket 3.5 00:56:27 10° NNE 01:02:35 51° E 01:05:49 25° SSE
MSX 4.3 00:57:51 10° NNE 01:03:32 55° E 01:06:35 27° SSE
Lacrosse 5 rocket 4.4 01:07:28 10° NNW 01:08:23 11° N 01:09:20 10° NNE
USA 32 4.3 01:03:22 10° N 01:08:33 63° E 01:11:43 23° SSE
Cosmos 1023 Rocket 4.4 01:06:38 37° S 01:08:37 75° ESE 01:13:40 10° NNE
USA 276 3.9 01:09:04 16° WNW 01:10:49 28° N 01:13:29 10° NE
In-Cosmos 22 Rocket 4.1 01:09:23 35° SSW 01:11:49 86° W 01:17:26 10° N
Cosmos 1818 3.6 01:09:43 33° SW 01:12:14 75° NW 01:17:43 10° NNE
Cosmos 2239 Rocket 4.4 01:11:48 10° N 01:17:59 77° W 01:21:32 27° S
Cosmos 1300 Rocket 3.8 01:13:50 10° NNW 01:18:01 50° W 01:19:07 39° SW
NPP 4.1 01:12:52 10° NNE 01:18:09 53° E 01:21:18 24° SSE
ARIANE 6 FM1 Upper Stage 4.1 01:16:12 18° W 01:18:34 31° NW 01:22:15 10° NNE
Cosmos 2242 Rocket 4.3 01:20:29 24° SSE 01:22:44 47° E 01:26:57 10° NNE
Meteor 2-19 Rocket 4.4 01:24:50 28° SSW 01:28:14 83° W 01:34:20 10° N
Cosmos 1378 Rocket 4.3 01:28:48 22° SSE 01:31:12 46° E 01:35:19 10° NNE
ATLAS 5 CENTAUR R/B 3.4 01:31:40 10° WNW 01:32:57 12° NNW 01:34:15 10° N
Cosmos 1934 Rocket 4.1 01:26:43 10° N 01:33:02 83° E 01:38:14 16° S
Nadezhda 3 Rocket 4.1 01:29:56 28° SSW 01:33:19 64° W 01:39:33 10° N
Envisat 4.4 01:29:36 10° NNE 01:34:05 31° E 01:38:16 11° SSE
Cosmos 1339 Rocket 4.4 01:32:02 27° SSW 01:35:33 77° W 01:41:40 10° N
Meteor 1-21 Rocket 4.3 01:32:42 27° SSW 01:36:05 82° W 01:42:03 10° N
Cosmos 405 Rocket 3.9 01:35:02 19° SE 01:36:16 25° E 01:38:47 10° NE
Cosmos 407 Rocket 3.7 01:37:55 24° S 01:40:53 61° ESE 01:45:56 10° NNE
SJ 16-02 1.9 01:39:46 24° SSE 01:42:02 48° ESE 01:46:08 10° NNE
Cosmos 921 Rocket 2.9 01:41:10 32° SSW 01:43:02 78° WNW 01:47:14 10° NNE
ACS3 Solar Sail 3.5 01:40:47 10° NNW 01:44:31 18° WNW 01:48:09 10° W
USA 308 3.9 01:41:52 15° W 01:44:38 36° NNW 01:48:34 10° NE
COSMOS 2455 3.5 01:47:52 19° WSW 01:52:00 46° NW 01:57:48 10° NNE
IDEFIX/ARIANE 42P 2.8 01:48:54 10° N 01:54:03 58° WNW 01:57:12 23° SW
Cosmos 540 Rocket 3.5 01:50:22 10° NNW 01:55:29 80° ENE 02:00:33 10° SSE
Cosmos 1674 Rocket 4.0 01:53:37 18° S 01:56:50 60° E 02:01:12 10° NNE
SL-19 R/B 3.8 01:59:03 26° S 02:00:46 66° WSW 02:04:02 10° NNW
SL-8 R/B 4.5 01:56:15 10° WNW 02:00:54 52° N 02:05:35 10° ENE
ADEOS II 3.7 01:57:13 10° NE 02:01:43 29° E 02:06:12 10° SSE
Meteor 1-11 4.2 02:00:23 20° SSW 02:04:15 76° WNW 02:09:56 10° N
Cosmos 1697 Rocket 4.4 02:00:19 10° SSE 02:04:47 25° ESE 02:09:16 10° NE
NOSS 3-1 (A) 3.9 02:01:56 15° WSW 02:05:30 40° NW 02:10:52 10° NNE
Resurs 1-4 Rocket 2.7 02:06:55 10° NNE 02:12:04 53° E 02:17:11 10° S
Okean 1 Rocket 3.7 02:08:13 10° N 02:12:30 54° ENE 02:16:42 10° SSE
Cosmos 1656 3.6 02:11:01 19° SSW 02:15:02 89° ESE 02:20:36 10° NNE
Cosmos 2251 Rocket 4.1 02:11:01 13° S 02:15:38 56° ESE 02:20:53 10° NNE
Cosmos 1346 Rocket 3.8 02:14:57 20° WSW 02:16:36 28° WNW 02:19:48 10° NNW
H-2A R/B 2.8 02:12:29 10° NNE 02:17:36 49° E 02:22:32 10° S
SL-4 R/B 3.4 02:16:55 10° WNW 02:19:35 24° N 02:22:13 10° NE
H-2A R/B 4.1 02:16:10 10° SE 02:19:38 33° ENE 02:23:10 10° N
Cosmos 1605 Rocket 4.0 02:14:25 10° N 02:20:44 76° W 02:26:53 10° S
COSMOS 2441 4.5 02:16:58 10° N 02:21:49 67° WNW 02:25:39 16° SSW
Meteor 2-21 4.5 02:19:42 12° S 02:25:35 89° W 02:31:50 10° N
Cosmos 371 Rocket 3.8 02:23:01 17° SW 02:26:26 46° WNW 02:31:07 10° N
Cosmos 1763 Rocket 3.7 02:22:20 10° NNW 02:27:11 48° WSW 02:31:59 10° S
Lacrosse 4 Rocket 3.2 02:29:09 10° WNW 02:31:19 14° WSW 02:31:50 14° WSW
Cosmos 2297 Rocket 2.4 02:29:45 10° NNW 02:35:26 76° ENE 02:41:05 10° SSE
Cosmos 1025 Rocket 3.3 02:34:41 14° SSW 02:38:12 54° WNW 02:42:29 10° N
OPS 8737 4.4 02:35:27 10° NW 02:38:26 47° WSW 02:41:31 10° SSE
Cosmos 2369 Rocket 4.5 02:36:18 10° WNW 02:38:30 12° NW 02:40:42 10° NNW
NOSS 2-2 (D) 3.9 02:35:08 10° NNW 02:38:52 68° NE 02:44:00 10° SE
MOZ.5/SAFIR/RUBIN 5/SL-8 4.1 02:35:55 10° S 02:40:18 46° W 02:44:46 10° NNW
USA 276 3.9 02:41:20 10° NW 02:44:04 32° N 02:46:52 10° ENE
CZ-2D R/B 2.2 02:39:21 10° NNE 02:44:50 89° WNW 02:50:13 10° SSW
Lacrosse 5 rocket 3.8 02:43:22 10° NNW 02:46:02 20° NNE 02:48:37 10° ENE
ADEOS Rocket 4.2 02:42:29 10° N 02:47:41 28° WNW 02:52:31 10° WSW
Cosmos 1980 Rocket 4.1 02:45:07 10° SSE 02:49:42 26° ESE 02:54:19 10° NE
DMSP B5D2-2 4.5 02:46:19 10° S 02:51:18 44° W 02:56:20 10° NNW
ATLAS 3B R/B 3.7 02:46:29 10° S 02:53:43 51° ESE 03:01:15 10° NE
ALOS 2.3 02:49:42 10° N 02:54:13 68° WNW 02:58:44 10° SSW
NOSS 2-2 (C) 4.0 02:51:14 10° NW 02:55:02 43° SW 03:00:11 10° SSE
Cosmos 468 Rocket 4.1 02:53:12 10° NNW 02:58:10 53° WSW 03:03:06 10° S
ARGOS 3.9 02:53:55 10° NNE 02:59:12 54° E 03:04:27 10° S
Spot 2 4.0 02:55:11 10° SSE 02:59:27 89° ENE 03:03:34 10° NNW
Cosmos 2263 Rocket 4.1 02:57:38 10° N 03:02:45 36° NE 03:07:53 10° ESE
Cosmos 1455 Rocket 3.0 03:01:21 10° N 03:05:40 80° W 03:09:59 10° S
Cosmos 405 Rocket 4.3 03:07:32 10° W 03:08:58 13° WNW 03:10:27 10° NW
Cosmos 2292 Rocket 3.4 03:07:09 10° SSW 03:09:56 38° WNW 03:13:02 10° N
Cosmos 2123 Rocket 4.3 03:04:46 10° S 03:11:03 73° E 03:17:21 10° NNE
Cosmos 2084 Rocket 3.3 03:08:06 10° SW 03:12:06 87° NW 03:16:11 10° NE
Okean 2 Rocket 4.0 03:09:00 10° NNW 03:12:49 30° W 03:16:37 10° SSW
Envisat 3.9 03:08:26 10° N 03:13:01 35° WNW 03:17:33 10° SW
SeaSat 1 2.7 03:10:35 10° S 03:15:18 48° WSW 03:20:03 10° NW
CENTAUR R/B 3.4 03:11:49 10° NW 03:20:17 82° SW 03:29:50 10° SSE
BREEZE-M DEB (TANK) 3.7 03:16:53 10° WNW 03:25:17 48° N 03:28:12 10° ENE
